Regional Weather Roundup
Issued by NWS

Home | Current Version | Previous Version | Graphics & Text | Print | Product List | Glossary On
Versions: 1 2 3 4 5 6 7 8 9 10 11 12 13 14 15 16 17 18 19 20 21 22 23 24 25 26 27 28 29 30 31 32 33 34 35 36 37 38 39 40 41 42 43 44 45 46 47 48 49 50
000
ASUS45 KSLC 020910
RWRUT

UTAH REGIONAL WEATHER ROUNDUP
NATIONAL WEATHER SERVICE SALT LAKE CITY UT
200 AM MST MON MAR 02 2015

UTZ001>011-023>025-021000-

NORTHERN UTAH

CITY           SKY/WX    TMP DP  RH WIND       PRES   REMARKS
BRIGHAM CITY   CLOUDY    32  24  72 CALM      29.94F
HILL AFB       CLOUDY    37  25  63 E9        29.92S WCI  30
LOGAN          CLOUDY    31  23  72 CALM      29.94F
OGDEN          CLOUDY    39  26  59 NE3       29.92F
PROVO AIRPORT  CLOUDY    39  32  75 SW5       29.93S
SALT LAKE CITY CLOUDY    40  30  67 NW3       29.93R
VERNAL         LGT SNOW  33  30  88 NW3       29.96F FOG
WENDOVER       PTCLDY    30  18  59 CALM      29.91F
HEBER CITY     CLOUDY    32  30  93 CALM      29.93S
WEST JORDAN    CLOUDY    37  32  81 CALM      29.93F

$$

UTZ012>022-026-027-021000-

SOUTHERN/CENTRAL UTAH

CITY           SKY/WX    TMP DP  RH WIND       PRES   REMARKS
BLANDING       CLOUDY    35  35 100 E6        30.06F VSB 3/4 WCI  30
BRYCE CANYON   LGT SNOW  28  27  96 SE12      29.90F VSB 3/4 WCI  18
CEDAR CITY     LGT SNOW  31  31 100 CALM      29.85F VSB 1
DELTA          CLOUDY    35  35  98 N5        29.89F WCI  31
HANKSVILLE     CLOUDY    34  34 100 W3        29.99F
MILFORD        SNOW      33  31  92 NE6       29.86F VSB 1/2 WCI  28
MOAB/CYNLANDS  CLOUDY    37  37 100 W5        29.94F WCI  33
PRICE          SNOW      32  29  88 CALM      29.94F VSB 1/2
ST GEORGE      CLOUDY    39  36  87 CALM      29.94F
KANAB          CLOUDY    36  36 100 NW6       29.93F WCI  31

$$

REGIONAL REPORTS     COLORADO/ARIZONA

CITY           SKY/WX    TMP DP  RH WIND       PRES   REMARKS
CRAIG, CO      LGT SNOW  32  28  85 E5        29.98S FOG     WCI  27
GRAND JUNCTION CLOUDY    34  34 100 E6        29.96F WCI  29
RIFLE          LGT SNOW  32  31  96 E3        29.99F FOG
MONTROSE       CLOUDY    33  31  92 E5        30.00F FOG     WCI  29
CORTEZ         CLOUDY    40  36  86 CALM      30.02F
PAGE, AZ       LGT RAIN  37  34  89 CALM      29.94F
GRAND CANYON   FLURRIES  37  36  96 S10       29.94S WCI  30
KINGMAN        LGT RAIN  41  40  96 NE5       29.87F
FLAGSTAFF      LGT RAIN  38  36  92 S20G31    29.97S WCI  28

$$

REGIONAL REPORTS    NEVADA/IDAHO/WYOMING

CITY           SKY/WX    TMP DP  RH WIND       PRES   REMARKS
LAS VEGAS, NV  LGT RAIN  47  40  76 S8        29.86F
ELY            CLOUDY    30  27  88 NE5       29.86F WCI  25
ELKO           CLEAR     25  19  78 E7        29.88F WCI  17
POCATELLO, ID  CLEAR     19  10  68 CALM      29.95F
BURLEY         CLEAR     19  11  70 CALM      29.92F
EVANSTON, WY   CLOUDY    24  18  77 NE5       29.92F WCI  18
ROCK SPRINGS   MOCLDY    21  15  78 NE6       29.95F WCI  13

$$


USA.gov is the U.S. government's official web portal to all federal, state and local government web resources and services.